Regional Weather Roundup
Issued by NWS

Home | Current Version | Previous Version | Graphics & Text | Print | Product List | Glossary On
Versions: 1 2 3 4 5 6 7 8 9 10 11 12 13 14 15 16 17 18 19 20 21 22 23 24 25 26 27 28 29 30 31 32 33 34 35 36 37 38 39 40 41 42 43 44 45 46 47 48 49 50
000
ASUS44 KMEG 240310
RWRTN
TENNESSEE HOURLY STATE WEATHER ROUNDUP
NATIONAL WEATHER SERVICE MEMPHIS TN
900 PM CST THU FEB 23 2017

TNZ002-004-019-021-049-052-054-088>092-240400-
WEST TENNESSEE

CITY           SKY/WX    TMP DP  RH WIND       PRES   REMARKS
MEMPHIS INTL   PTCLDY    67  60  78 S13       29.67S
NWS MEMPHIS      N/A     65 N/A N/A MISG        N/A
JACKSON        CLEAR     65  58  78 S9        29.70R
UNION CITY     CLEAR     64  57  77 S13       29.66R
PARIS          CLEAR     63  54  72 S10       29.70S
HUNTINGDON     CLEAR     64  57  77 S10       29.70R
$$

TNZ008-025-027-028-033-062-065-066-240400-
NORTH MIDDLE TENNESSEE

CITY           SKY/WX    TMP DP  RH WIND       PRES   REMARKS
NASHVILLE      PTCLDY    63  53  70 S8        29.76S
PORTLAND       CLEAR     64  54  68 S9        29.76S
CLARKSVILLE    CLEAR     65  53  65 S7        29.72S
SMYRNA         PTCLDY    61  54  77 SE6       29.78R
COOKEVILLE     CLEAR     63  52  67 S5        29.80R
GALLATIN       CLEAR     61  54  77 SE3       29.79S
CROSSVILLE     CLOUDY    58  51  78 CALM      29.85R
$$

TNZ061-075-076-078-094-096-097-240400-
SOUTH MIDDLE TENNESSEE

CITY           SKY/WX    TMP DP  RH WIND       PRES   REMARKS
FAYETTEVILLE   CLEAR     61  55  82 S7        29.81R
TULLAHOMA      CLEAR     63  54  72 S7        29.81S
WINCHESTER     CLEAR     55  52  88 S3        29.82S
MCMINNVILLE    CLEAR     55  54  94 CALM      29.81S
COLUMBIA       CLEAR     64  64 100 S6        29.75S
SHELBYVILLE    CLEAR     63  55  77 SE3       29.80R
$$

TNZ017-018-042-046-047-240400-
NORTHEAST TENNESSEE

CITY           SKY/WX    TMP DP  RH WIND       PRES   REMARKS
TRI CITIES     PTCLDY    59  50  72 CALM      29.88R
ELIZABETHTON   PTCLDY    61  52  72 NE5       29.88R
$$

TNZ012-013-036-069-073-074-240400-
CENTRAL EAST TENNESSEE

CITY           SKY/WX    TMP DP  RH WIND       PRES   REMARKS
KNOXVILLE      MOCLDY    62  53  72 S3        29.83R
OAK RIDGE      MOCLDY    58  54  86 CALM      29.84S
GATLINBURG     CLEAR     55  52  88 CALM      29.84R
MORRISTOWN     MOCLDY    59  54  82 CALM      29.84R
JACKSBORO      CLOUDY    52  52 100 CALM      29.86S
$$

TNZ083-085-099-240400-
SOUTHEAST TENNESSEE

CITY           SKY/WX    TMP DP  RH WIND       PRES   REMARKS
CHATTANOOGA    PTCLDY    60  53  77 CALM      29.83R
$$

SKY/WX REPORTED AS FAIR MEANS FEW OR NO CLOUDS BELOW
12 THOUSAND FEET.





USA.gov is the U.S. government's official web portal to all federal, state and local government web resources and services.